Regional Weather Roundup
Issued by NWS

Home | Current Version | Previous Version | Text Only | Print | Product List | Glossary Off
Versions: 1 2 3 4 5 6 7 8 9 10 11 12 13 14 15 16 17 18 19 20 21 22 23 24 25 26 27 28 29 30 31 32 33 34 35 36 37 38 39 40 41 42 43 44 45 46 47 48 49 50

000
ASUS43 KMKX 070559
RWRWI

WISCONSIN REGIONAL WEATHER ROUNDUP
NATIONAL WEATHER SERVICE MILWAUKEE/SULLIVAN WI
1200 AM CST SUN FEB 07 2016

NOTE: "FAIR" INDICATES FEW OR NO CLOUDS BELOW 12,000 FEET WITH NO
SIGNIFICANT WEATHER AND/OR OBSTRUCTIONS TO VISIBILITY.

WIZ001-002-006>008-014>016-023>028-070700-
NORTHWEST WISCONSIN

CITY           SKY/WX    TMP DP  RH WIND       PRES   REMARKS
SUPERIOR ARPT  LGT SNOW  33  31  93 SW10      29.64F WCI  25
ASHLAND        LGT SNOW  32  29  88 S10       29.68F FOG     WCI  24
6HR MIN TEMP:  32; 6HR MAX TEMP:  35; 6HR PCP: TRACE;

HAYWARD        CLOUDY    30  26  85 S15       29.69F WCI  19
6HR MIN TEMP:  30; 6HR MAX TEMP:  33; 6HR PCP:  0.01;

SIREN          CLOUDY    33  28  84 SW12      29.70F WCI  24
CUMBERLAND     CLOUDY    30  28  93 S13       29.71F WCI  20
RICE LAKE      CLOUDY    31  28  88 S9        29.76F WCI  22
CHETEK         CLOUDY    30  27  89 S8        29.75F WCI  22
LADYSMITH      LGT SNOW  30  27  90 S9        29.79F WCI  21
EAU CLAIRE     NOT AVBL
MENOMONIE      CLOUDY    32  28  83 S8        29.80F WCI  25
NEW RICHMOND   CLOUDY    32  28  84 S12       29.72F WCI  23
OSCEOLA        CLOUDY    32  30  90 S8        29.74F WCI  25
$$

WIZ003>005-009-010-017-018-070700-
NORTH CENTRAL WISCONSIN

CITY           SKY/WX    TMP DP  RH WIND       PRES   REMARKS
MANITOWISH WTR LGT SNOW  29  26  87 SW18      29.73S WCI  17
ARBOR VITAE    FLURRIES  32  27  83 SW13G20   29.75F WCI  22
WOODRUFF       FLURRIES  32  27  83 SW13G20   29.75F WCI  22
RHINELANDER    FLURRIES  29  23  78 SW14G21   29.77F WCI  18
6HR MIN TEMP:  28; 6HR MAX TEMP:  30; 6HR PCP: TRACE;

EAGLE RIVER    LGT SNOW  29  24  84 SW8G18    29.75F WCI  21
LAND O LAKES   LGT SNOW  30  27  89 S10G21    29.73F WCI  21
PHILLIPS       LGT SNOW  28  26  92 SW12      29.76S WCI  18
TOMAHAWK       CLOUDY    29  23  79 S6        29.79F WCI  23
MEDFORD        CLOUDY    28  25  87 S13G18    29.79F WCI  17
MERRILL        CLOUDY    30  24  78 SW10G16   29.83F WCI  21
$$

WIZ029-030-035-036-043>047-070700-
CENTRAL WISCONSIN

CITY           SKY/WX    TMP DP  RH WIND       PRES   REMARKS
WAUSAU         LGT SNOW  30  24  78 S13       29.81F WCI  20
6HR MIN TEMP:  30; 6HR MAX TEMP:  32; 6HR PCP: TRACE;

MOSINEE        CLOUDY    30  27  86 S14       29.86F WCI  20
MARSHFIELD     CLOUDY    30  23  75 S10       29.81F WCI  21
6HR MIN TEMP:  30; 6HR MAX TEMP:  31; 6HR PCP: TRACE;

STEVENS POINT  CLOUDY    28  24  84 S9        29.89F WCI  19
WAUPACA        CLOUDY    32  26  80 S8        29.92F WCI  24
WAUTOMA        NOT AVBL
WISC RAPIDS    CLOUDY    30  24  78 S9        29.87F WCI  22
6HR MIN TEMP:  29; 6HR MAX TEMP:  31;

CAMP DOUGLAS   NOT AVBL
$$

WIZ011>013-019>022-031-037>040-048>050-070700-
NORTHEAST WISCONSIN

CITY           SKY/WX    TMP DP  RH WIND       PRES   REMARKS
ANTIGO         LGT SNOW  28  25  89 S15G21    29.84F WCI  16
SHAWANO        CLOUDY    32  26  78 CALM      29.91F
OCONTO         CLOUDY    30  26  84 S6        29.92F WCI  24
STURGEON BAY   CLOUDY    28  23  80 S10       29.94F WCI  19
6HR MIN TEMP:  28; 6HR MAX TEMP:  28;

GREEN BAY      CLOUDY    29  25  85 S9        29.93F WCI  20
6HR MIN TEMP:  29; 6HR MAX TEMP:  30;

MANITOWOC      NOT AVBL
APPLETON       CLOUDY    30  25  80 S10       29.91F WCI  21
CLINTONVILLE   CLOUDY    30  25  80 S7        29.91F WCI  23
OSHKOSH        CLOUDY    31  26  82 S17       29.92F WCI  19
6HR MIN TEMP:  28; 6HR MAX TEMP:  31;

$$

WIZ032>034-041-042-053>061-070700-
SOUTHWEST WISCONSIN

CITY           SKY/WX    TMP DP  RH WIND       PRES   REMARKS
LA CROSSE      CLOUDY    32  27  81 S9        29.85F WCI  24
6HR MIN TEMP:  30; 6HR MAX TEMP:  32;

SPARTA         CLOUDY    32  28  84 S3        29.89F
VIROQUA        CLOUDY    32  29  90 SW16      29.87F WCI  21
BOSCOBEL       CLOUDY    34  31  88 S6        29.92F WCI  29
6HR MIN TEMP:  29; 6HR MAX TEMP:  34;

PRAIRIE DU CHI CLOUDY    36  28  74 S6        29.91F WCI  31
PLATTEVILLE    CLOUDY    32  31  96 S13       29.95F WCI  22
$$

WIZ056-057-062-063-064-067-068-070700-
SOUTH CENTRAL WISCONSIN

CITY           SKY/WX    TMP DP  RH WIND       PRES   REMARKS
REEDSBURG      CLOUDY    32  28  88 S12       29.92F WCI  23
BARABOO/DELLS  CLOUDY    32  27  81 S13G20    29.92F WCI  22
LONE ROCK      NOT AVBL
MINERAL POINT  CLOUDY    34  32  93 S12       29.94F WCI  25
MADISON        CLOUDY    32  28  85 S9        29.96F WCI  24
6HR MIN TEMP:  29; 6HR MAX TEMP:  32;

MIDDLETON      CLOUDY    33  29  85 SW6       29.97F WCI  28
WATERTOWN      CLOUDY    30  30 100 S6        29.98F WCI  24
MONROE         CLOUDY    32  30  93 S14       29.97F WCI  22
JANESVILLE     CLOUDY    32  32 100 S7        30.00F WCI  26
$$

WIZ051-052-058>065-066-070>072-070700-
SOUTHEAST WISCONSIN

CITY           SKY/WX    TMP DP  RH WIND       PRES   REMARKS
MILWAUKEE      CLOUDY    32  27  81 SW7       30.00F WCI  26
6HR MIN TEMP:  30; 6HR MAX TEMP:  34;

WAUKESHA       MOCLDY    30  28  93 S7        30.00F WCI  23
MILWAUKEE/TIMM CLOUDY    32  28  86 SW7       30.01F WCI  26
RACINE         CLOUDY    33  27  78 SW8       30.03F WCI  26
6HR MIN TEMP:  28; 6HR MAX TEMP:  33;

BURLINGTON     MOCLDY    30  27  89 SW5       30.01F WCI  25
KENOSHA        CLOUDY    32  28  85 SW5       30.01F WCI  27
6HR MIN TEMP:  28; 6HR MAX TEMP:  34;

FOND DU LAC    CLOUDY    32  27  81 S13       29.94F WCI  22
6HR MIN TEMP:  29; 6HR MAX TEMP:  32;

SHEBOYGAN      CLOUDY    30  26  85 SW7       29.96F WCI  23
6HR MIN TEMP:  27; 6HR MAX TEMP:  31;

WEST BEND      MOCLDY    32  28  86 S5        29.98F WCI  27
JUNEAU         CLOUDY    29  27  90 S9        29.98F WCI  21
$$

LSZ147-162-070700-
LAKE SUPERIOR

STATION/POSITION TIME  TEMP    WIND        PRES    WAVE
                       AIR SEA DIR/SP/G            HT/PER
                 (UTC) (F)     (DEG/KT/KT) (MB)    (FT/S)
DEVILS ISLAND    0500   31     180/  5/  8 1006.1F
PORT WING        0400          180/  9/ 21   N/A
SAXON HARBOR     0500   34                 1005.8
$$

LMZ867-665-643>646-070700-
LAKE MICHIGAN

STATION/POSITION TIME  TEMP    WIND        PRES    WAVE
                       AIR SEA DIR/SP/G            HT/PER
                 (UTC) (F)     (DEG/KT/KT) (MB)    (FT/S)
CHAMBERS ISLAND  0500   29     170/  6/ 12 1014.2F
ALGOMA LAKESHORE 0511          220/ 13/ 16   N/A
KEWAUNEE LAKESHO 0500   30     210/ 10/ 14 1014.2F
SHEBOYGAN LAKESH 0500   31     210/ 10/ 13 1016.7F
PORT WASHINGTON  0500   32     230/  3/  5 1016.9
MILWAUKEE LAKESH 0520   34     230/  9/ 11   N/A
KENOSHA   LAKESH 0500   34     210/  7/ 10 1016.9F
$$

TC  - TEMPERATURE IN CELSIUS
VSB - VISIBILITY IN STATUTE MILES
WCI - WIND CHILL INDEX
HX  - HEAT INDEX




USA.gov is the U.S. government's official web portal to all federal, state and local government web resources and services.